| time (UTC) | temp C | wind direction | speed KPH | gust KPH | rain 1hr cm | rain 24hr cm | rain mn cm | humidity % | barometer mb |
| 20260901184406 | 16 | 73 | 3.2 | 4.8 | 0.00 | 0.00 | 0.00 | 89 | 1008.1 |
| 20260901183905 | 17 | 73 | 0.0 | 3.2 | 0.00 | 0.00 | 0.00 | 88 | 1008.2 |
| 20260901183403 | 17 | 73 | 3.2 | 6.4 | 0.00 | 0.00 | 0.00 | 88 | 1008.2 |
| 20260901182905 | 17 | 73 | 3.2 | 6.4 | 0.00 | 0.00 | 0.00 | 88 | 1008.2 |
| 20260901182404 | 17 | 73 | 3.2 | 6.4 | 0.00 | 0.00 | 0.00 | 88 | 1008.2 |
| 20260901181905 | 17 | 73 | 4.8 | 6.4 | 0.00 | 0.00 | 0.00 | 87 | 1008.2 |
| 20260901181404 | 17 | 73 | 3.2 | 4.8 | 0.00 | 0.00 | 0.00 | 87 | 1008.1 |
| 20260901180904 | 17 | 73 | 3.2 | 3.2 | 0.00 | 0.00 | 0.00 | 86 | 1008.1 |
| 20260901180404 | 17 | 73 | 0.0 | 3.2 | 0.00 | 0.00 | 0.00 | 85 | 1008.1 |
| 20260901175903 | 17 | 73 | 1.6 | 4.8 | 0.00 | 0.00 | 0.00 | 85 | 1008.1 |
| 20260901175404 | 17 | 73 | 1.6 | 6.4 | 0.00 | 0.00 | 0.00 | 85 | 1008.1 |
| 20260901174903 | 18 | 73 | 3.2 | 6.4 | 0.00 | 0.00 | 0.00 | 84 | 1008.0 |
| 20260901174403 | 18 | 73 | 1.6 | 4.8 | 0.00 | 0.00 | 0.00 | 83 | 1008.0 |
| 20260901173903 | 18 | 72 | 1.6 | 6.4 | 0.00 | 0.00 | 0.00 | 83 | 1007.9 |
| 20260901173404 | 18 | 75 | 3.2 | 8.0 | 0.00 | 0.00 | 0.00 | 82 | 1007.9 |
| 20260901172903 | 18 | 73 | 3.2 | 8.0 | 0.00 | 0.00 | 0.00 | 82 | 1007.9 |
| 20260901172402 | 18 | 54 | 3.2 | 8.0 | 0.00 | 0.00 | 0.00 | 81 | 1007.9 |
| 20260901171902 | 18 | 47 | 3.2 | 9.7 | 0.00 | 0.00 | 0.00 | 80 | 1007.9 |
| 20260901171622 | 18 | 54 | 6.4 | 9.7 | 0.00 | 0.00 | 0.00 | 79 | 1007.9 |
| 20260901170902 | 18 | 54 | 3.2 | 8.0 | 0.00 | 0.00 | 0.00 | 78 | 1007.8 |
| 20260901170403 | 19 | 52 | 6.4 | 8.0 | 0.00 | 0.00 | 0.00 | 78 | 1007.7 |
| 20260901165903 | 19 | 54 | 4.8 | 6.4 | 0.00 | 0.00 | 0.00 | 78 | 1007.7 |
| 20260901165401 | 19 | 38 | 3.2 | 6.4 | 0.00 | 0.00 | 0.00 | 77 | 1007.7 |
| 20260901164902 | 19 | 38 | 3.2 | 4.8 | 0.00 | 0.00 | 0.00 | 76 | 1007.7 |
| 20260901164403 | 19 | 38 | 3.2 | 4.8 | 0.00 | 0.00 | 0.00 | 76 | 1007.6 |
| 20260901163903 | 19 | 38 | 3.2 | 4.8 | 0.00 | 0.00 | 0.00 | 76 | 1007.7 |
| 20260901163402 | 19 | 38 | 1.6 | 6.4 | 0.00 | 0.00 | 0.00 | 76 | 1007.7 |
| 20260901162902 | 19 | 38 | 3.2 | 6.4 | 0.00 | 0.00 | 0.00 | 75 | 1007.6 |
| 20260901162628 | 19 | 30 | 4.8 | 6.4 | 0.00 | 0.00 | 0.00 | 73 | 1007.5 |
| 20260901161902 | 20 | 16 | 3.2 | 6.4 | 0.00 | 0.00 | 0.00 | 72 | 1007.5 |
| 20260901161402 | 20 | 25 | 4.8 | 6.4 | 0.00 | 0.00 | 0.00 | 71 | 1007.5 |
| 20260901160903 | 20 | 24 | 3.2 | 6.4 | 0.00 | 0.00 | 0.00 | 71 | 1007.5 |
| 20260901160402 | 20 | 38 | 3.2 | 6.4 | 0.00 | 0.00 | 0.00 | 70 | 1007.5 |
| 20260901155903 | 20 | 38 | 1.6 | 4.8 | 0.00 | 0.00 | 0.00 | 69 | 1007.5 |
| 20260901155402 | 20 | 47 | 3.2 | 6.4 | 0.00 | 0.00 | 0.00 | 69 | 1007.4 |
| 20260901154902 | 20 | 49 | 6.4 | 6.4 | 0.00 | 0.00 | 0.00 | 68 | 1007.4 |
| 20260901154402 | 20 | 56 | 4.8 | 6.4 | 0.00 | 0.00 | 0.00 | 68 | 1007.4 |
| 20260901153902 | 21 | 78 | 4.8 | 6.4 | 0.00 | 0.00 | 0.00 | 67 | 1007.3 |
| 20260901153851 | 21 | 48 | 1.6 | 3.2 | 0.00 | 0.00 | 0.00 | 68 | 1007.2 |
| 20260901152903 | 21 | 48 | 0.0 | 4.8 | 0.00 | 0.00 | 0.00 | 69 | 1007.2 |
| 20260901152402 | 21 | 48 | 1.6 | 4.8 | 0.00 | 0.00 | 0.00 | 69 | 1007.2 |
| 20260901151902 | 21 | 49 | 3.2 | 4.8 | 0.00 | 0.00 | 0.00 | 69 | 1007.2 |
| 20260901151626 | 21 | 49 | 3.2 | 4.8 | 0.00 | 0.00 | 0.00 | 68 | 1007.3 |
| 20260901150904 | 21 | 52 | 1.6 | 4.8 | 0.00 | 0.00 | 0.00 | 69 | 1007.3 |
| 20260901150404 | 21 | 52 | 3.2 | 4.8 | 0.00 | 0.00 | 0.00 | 68 | 1007.2 |
| 20260901145904 | 21 | 63 | 1.6 | 8.0 | 0.00 | 0.00 | 0.00 | 70 | 1007.4 |
| 20260901145621 | 20 | 345 | 3.2 | 9.7 | 0.00 | 0.00 | 0.00 | 71 | 1007.4 |
| 20260901144903 | 20 | 0 | 3.2 | 11.3 | 0.00 | 0.00 | 0.00 | 71 | 1007.4 |
| 20260901144625 | 21 | 268 | 8.0 | 11.3 | 0.00 | 0.00 | 0.00 | 71 | 1007.5 |
| 20260901144127 | 21 | 37 | 3.2 | 8.0 | 0.00 | 0.00 | 0.00 | 72 | 1007.5 |
| 20260901143404 | 20 | 354 | 4.8 | 9.7 | 0.00 | 0.00 | 0.00 | 73 | 1007.5 |
| 20260901142904 | 20 | 13 | 4.8 | 9.7 | 0.00 | 0.00 | 0.00 | 71 | 1007.4 |
| 20260901142403 | 21 | 35 | 4.8 | 8.0 | 0.00 | 0.00 | 0.00 | 71 | 1007.4 |
| 20260901141904 | 21 | 354 | 6.4 | 8.0 | 0.00 | 0.00 | 0.00 | 71 | 1007.4 |
| 20260901141403 | 21 | 329 | 3.2 | 8.0 | 0.00 | 0.00 | 0.00 | 70 | 1007.4 |
| 20260901140903 | 21 | 305 | 4.8 | 8.0 | 0.00 | 0.00 | 0.00 | 71 | 1007.4 |
| 20260901140403 | 21 | 312 | 4.8 | 6.4 | 0.00 | 0.00 | 0.00 | 72 | 1007.5 |
| 20260901135903 | 21 | 289 | 0.0 | 4.8 | 0.00 | 0.00 | 0.00 | 72 | 1007.4 |
| 20260901135402 | 21 | 166 | 3.2 | 4.8 | 0.00 | 0.00 | 0.00 | 72 | 1007.5 |
| 20260901134902 | 21 | 149 | 0.0 | 4.8 | 0.00 | 0.00 | 0.00 | 73 | 1007.5 |
| 20260901134402 | 21 | 193 | 1.6 | 6.4 | 0.00 | 0.00 | 0.00 | 73 | 1007.6 |
| 20260901133902 | 21 | 295 | 4.8 | 6.4 | 0.00 | 0.00 | 0.00 | 73 | 1007.6 |
| 20260901133403 | 20 | 216 | 1.6 | 3.2 | 0.00 | 0.00 | 0.00 | 75 | 1007.7 |
| 20260901132902 | 20 | 214 | 1.6 | 6.4 | 0.00 | 0.00 | 0.00 | 74 | 1007.7 |
| 20260901132402 | 20 | 179 | 3.2 | 6.4 | 0.00 | 0.00 | 0.00 | 73 | 1007.7 |
| 20260901132124 | 20 | 224 | 0.0 | 6.4 | 0.00 | 0.00 | 0.00 | 75 | 1007.7 |
| 20260901131403 | 20 | 251 | 0.0 | 6.4 | 0.00 | 0.00 | 0.00 | 75 | 1007.7 |
| 20260901130903 | 20 | 251 | 1.6 | 8.0 | 0.00 | 0.00 | 0.00 | 74 | 1007.6 |
| 20260901130404 | 20 | 213 | 1.6 | 8.0 | 0.00 | 0.00 | 0.00 | 75 | 1007.6 |
| 20260901125903 | 20 | 282 | 1.6 | 6.4 | 0.00 | 0.00 | 0.00 | 77 | 1007.7 |
| 20260901125403 | 20 | 282 | 1.6 | 4.8 | 0.00 | 0.00 | 0.00 | 76 | 1007.6 |
| 20260901124903 | 20 | 282 | 0.0 | 4.8 | 0.00 | 0.00 | 0.00 | 76 | 1007.6 |
| 20260901124403 | 19 | 282 | 1.6 | 4.8 | 0.00 | 0.00 | 0.00 | 73 | 1007.6 |
| 20260901123903 | 20 | 282 | 3.2 | 4.8 | 0.00 | 0.00 | 0.00 | 77 | 1007.6 |
| 20260901123403 | 20 | 305 | 0.0 | 6.4 | 0.00 | 0.00 | 0.00 | 76 | 1007.7 |
| 20260901122903 | 20 | 306 | 3.2 | 6.4 | 0.00 | 0.00 | 0.00 | 75 | 1007.6 |
| 20260901122403 | 20 | 241 | 0.0 | 4.8 | 0.00 | 0.00 | 0.00 | 73 | 1007.6 |
| 20260901121903 | 20 | 258 | 1.6 | 4.8 | 0.00 | 0.00 | 0.00 | 72 | 1007.6 |
| 20260901121621 | 20 | 258 | 1.6 | 6.4 | 0.00 | 0.00 | 0.00 | 72 | 1007.6 |
| 20260901120903 | 20 | 258 | 3.2 | 6.4 | 0.00 | 0.00 | 0.00 | 73 | 1007.6 |
| 20260901120404 | 20 | 265 | 3.2 | 8.0 | 0.00 | 0.00 | 0.00 | 76 | 1007.6 |
| 20260901120127 | 20 | 295 | 4.8 | 8.0 | 0.00 | 0.00 | 0.00 | 77 | 1007.6 |
| 20260901115627 | 20 | 248 | 1.6 | 4.8 | 0.00 | 0.00 | 0.00 | 78 | 1007.5 |
| 20260901114904 | 19 | 248 | 3.2 | 4.8 | 0.00 | 0.00 | 0.00 | 79 | 1007.4 |
| 20260901114403 | 19 | 248 | 3.2 | 4.8 | 0.00 | 0.00 | 0.00 | 80 | 1007.5 |
| 20260901113903 | 18 | 171 | 1.6 | 4.8 | 0.00 | 0.00 | 0.00 | 84 | 1007.5 |
| 20260901113404 | 18 | 171 | 0.0 | 4.8 | 0.00 | 0.00 | 0.00 | 85 | 1007.6 |
| 20260901113121 | 18 | 169 | 1.6 | 3.2 | 0.00 | 0.00 | 0.00 | 86 | 1007.6 |
| 20260901112402 | 18 | 169 | 0.0 | 4.8 | 0.00 | 0.00 | 0.00 | 86 | 1007.6 |
| 20260901111904 | 17 | 169 | 0.0 | 4.8 | 0.00 | 0.00 | 0.00 | 88 | 1007.5 |
| 20260901111404 | 17 | 303 | 0.0 | 3.2 | 0.00 | 0.00 | 0.00 | 89 | 1007.4 |
| 20260901110903 | 17 | 303 | 1.6 | 3.2 | 0.00 | 0.00 | 0.00 | 89 | 1007.4 |
| 20260901110403 | 17 | 303 | 0.0 | 3.2 | 0.00 | 0.00 | 0.00 | 89 | 1007.5 |
| 20260901105904 | 17 | 303 | 1.6 | 3.2 | 0.00 | 0.00 | 0.00 | 89 | 1007.3 |
| 20260901105404 | 17 | 303 | 3.2 | 3.2 | 0.00 | 0.00 | 0.00 | 88 | 1007.4 |
| 20260901104904 | 17 | 303 | 0.0 | 0.0 | 0.00 | 0.00 | 0.00 | 87 | 1007.4 |
| 20260901104403 | 17 | 303 | 0.0 | 0.0 | 0.00 | 0.00 | 0.00 | 87 | 1007.4 |
| 20260901103904 | 17 | 303 | 0.0 | 0.0 | 0.00 | 0.00 | 0.00 | 87 | 1007.4 |
| 20260901103404 | 18 | 303 | 0.0 | 0.0 | 0.00 | 0.00 | 0.00 | 87 | 1007.4 |
| 20260901102903 | 18 | 303 | 0.0 | 0.0 | 0.00 | 0.00 | 0.00 | 86 | 1007.4 |
| 20260901102403 | 18 | 303 | 0.0 | 0.0 | 0.00 | 0.00 | 0.00 | 86 | 1007.4 |
| 20260901101903 | 18 | 303 | 0.0 | 0.0 | 0.00 | 0.00 | 0.00 | 86 | 1007.3 |
| 20260901101403 | 18 | 303 | 0.0 | 1.6 | 0.00 | 0.00 | 0.00 | 86 | 1007.3 |
| 20260901100903 | 18 | 303 | 0.0 | 1.6 | 0.00 | 0.00 | 0.00 | 84 | 1007.2 |
| 20260901100403 | 18 | 303 | 0.0 | 1.6 | 0.00 | 0.00 | 0.00 | 84 | 1007.1 |
| 20260901095903 | 18 | 303 | 0.0 | 4.8 | 0.00 | 0.00 | 0.00 | 83 | 1007.3 |
| 20260901095403 | 18 | 303 | 0.0 | 4.8 | 0.00 | 0.00 | 0.00 | 82 | 1007.2 |
| 20260901094904 | 18 | 39 | 0.0 | 3.2 | 0.00 | 0.00 | 0.00 | 82 | 1007.2 |
| 20260901094403 | 18 | 39 | 1.6 | 3.2 | 0.00 | 0.00 | 0.00 | 82 | 1007.1 |
| 20260901094129 | 18 | 39 | 0.0 | 0.0 | 0.00 | 0.00 | 0.00 | 81 | 1007.1 |
| 20260901093630 | 18 | 39 | 0.0 | 1.6 | 0.00 | 0.00 | 0.00 | 81 | 1007.1 |
| 20260901092903 | 18 | 39 | 1.6 | 1.6 | 0.00 | 0.00 | 0.00 | 82 | 1007.2 |
| 20260901092403 | 18 | 39 | 1.6 | 3.2 | 0.00 | 0.00 | 0.00 | 82 | 1007.1 |
| 20260901091903 | 18 | 39 | 0.0 | 3.2 | 0.00 | 0.00 | 0.00 | 82 | 1007.0 |
| 20260901091403 | 18 | 39 | 3.2 | 3.2 | 0.00 | 0.00 | 0.00 | 82 | 1007.0 |
| 20260901090903 | 18 | 39 | 0.0 | 0.0 | 0.00 | 0.00 | 0.00 | 82 | 1007.0 |
| 20260901090403 | 18 | 39 | 0.0 | 1.6 | 0.00 | 0.00 | 0.00 | 83 | 1007.1 |
| 20260901085903 | 18 | 39 | 0.0 | 4.8 | 0.00 | 0.00 | 0.00 | 83 | 1007.0 |
| 20260901085405 | 18 | 39 | 1.6 | 4.8 | 0.00 | 0.00 | 0.00 | 83 | 1007.0 |
| 20260901084905 | 18 | 39 | 3.2 | 4.8 | 0.00 | 0.00 | 0.00 | 84 | 1007.1 |
| 20260901084404 | 18 | 39 | 3.2 | 4.8 | 0.00 | 0.00 | 0.00 | 85 | 1007.1 |
| 20260901083905 | 18 | 135 | 3.2 | 4.8 | 0.00 | 0.00 | 0.00 | 85 | 1007.0 |
| 20260901083404 | 18 | 135 | 3.2 | 4.8 | 0.00 | 0.00 | 0.00 | 86 | 1007.1 |
| 20260901082904 | 18 | 135 | 0.0 | 4.8 | 0.00 | 0.00 | 0.00 | 86 | 1007.1 |
| 20260901082405 | 18 | 135 | 1.6 | 4.8 | 0.00 | 0.00 | 0.00 | 87 | 1007.1 |
| 20260901081905 | 17 | 135 | 0.0 | 0.0 | 0.00 | 0.00 | 0.00 | 88 | 1007.1 |
| 20260901081403 | 17 | 135 | 0.0 | 0.0 | 0.00 | 0.00 | 0.00 | 88 | 1007.1 |
| 20260901080903 | 17 | 135 | 0.0 | 0.0 | 0.00 | 0.00 | 0.00 | 87 | 1007.1 |
| 20260901080403 | 17 | 135 | 0.0 | 0.0 | 0.00 | 0.00 | 0.00 | 86 | 1007.1 |
| 20260901075903 | 17 | 135 | 0.0 | 0.0 | 0.00 | 0.00 | 0.00 | 86 | 1007.1 |
| 20260901075403 | 17 | 135 | 0.0 | 0.0 | 0.00 | 0.00 | 0.00 | 86 | 1007.1 |
| 20260901074903 | 17 | 135 | 0.0 | 0.0 | 0.00 | 0.00 | 0.00 | 87 | 1007.0 |
| 20260901074403 | 17 | 135 | 0.0 | 0.0 | 0.00 | 0.00 | 0.00 | 88 | 1007.0 |
| 20260901073903 | 17 | 135 | 0.0 | 0.0 | 0.00 | 0.00 | 0.00 | 88 | 1006.9 |
| 20260901073403 | 17 | 135 | 0.0 | 0.0 | 0.00 | 0.00 | 0.00 | 87 | 1006.8 |
| 20260901072903 | 17 | 135 | 0.0 | 0.0 | 0.00 | 0.00 | 0.00 | 87 | 1006.9 |
| 20260901072402 | 17 | 135 | 0.0 | 3.2 | 0.00 | 0.00 | 0.00 | 87 | 1006.8 |
| 20260901071902 | 17 | 135 | 1.6 | 3.2 | 0.00 | 0.00 | 0.00 | 88 | 1006.8 |
| 20260901071846 | 17 | 133 | 0.0 | 3.2 | 0.00 | 0.00 | 0.00 | 88 | 1006.7 |
| 20260901070903 | 17 | 133 | 0.0 | 3.2 | 0.00 | 0.00 | 0.00 | 89 | 1006.7 |
| 20260901070402 | 17 | 133 | 0.0 | 3.2 | 0.00 | 0.00 | 0.00 | 89 | 1006.6 |
| 20260901065903 | 16 | 133 | 0.0 | 1.6 | 0.00 | 0.00 | 0.00 | 89 | 1006.6 |
| 20260901065402 | 16 | 266 | 0.0 | 0.0 | 0.00 | 0.00 | 0.00 | 90 | 1006.6 |
| 20260901065351 | 16 | 266 | 0.0 | 0.0 | 0.00 | 0.00 | 0.00 | 89 | 1006.6 |
| 20260901064402 | 16 | 266 | 0.0 | 0.0 | 0.00 | 0.00 | 0.00 | 90 | 1006.5 |
| 20260901063902 | 16 | 266 | 0.0 | 0.0 | 0.00 | 0.00 | 0.00 | 90 | 1006.5 |
| 20260901063402 | 16 | 266 | 0.0 | 0.0 | 0.00 | 0.00 | 0.00 | 90 | 1006.5 |
| 20260901063129 | 16 | 266 | 0.0 | 0.0 | 0.00 | 0.00 | 0.00 | 90 | 1006.5 |
| 20260901062403 | 16 | 266 | 0.0 | 0.0 | 0.00 | 0.00 | 0.00 | 90 | 1006.4 |
| 20260901061902 | 16 | 266 | 0.0 | 0.0 | 0.00 | 0.00 | 0.00 | 91 | 1006.4 |
| 20260901061402 | 16 | 266 | 0.0 | 0.0 | 0.00 | 0.00 | 0.00 | 91 | 1006.3 |
| 20260901060902 | 16 | 266 | 0.0 | 0.0 | 0.00 | 0.00 | 0.00 | 91 | 1006.3 |
| 20260901060824 | 16 | 266 | 0.0 | 1.6 | 0.00 | 0.00 | 0.00 | 91 | 1006.4 |
| 20260901055402 | 16 | 266 | 1.6 | 3.2 | 0.00 | 0.00 | 0.00 | 91 | 1006.4 |
| 20260901054902 | 16 | 266 | 0.0 | 3.2 | 0.00 | 0.00 | 0.00 | 91 | 1006.4 |
| 20260901054402 | 16 | 266 | 0.0 | 3.2 | 0.00 | 0.00 | 0.00 | 92 | 1006.4 |
| 20260901053902 | 16 | 266 | 0.0 | 3.2 | 0.00 | 0.00 | 0.00 | 92 | 1006.5 |
| 20260901053402 | 16 | 226 | 0.0 | 3.2 | 0.00 | 0.00 | 0.00 | 93 | 1006.4 |
| 20260901052903 | 16 | 226 | 0.0 | 3.2 | 0.00 | 0.00 | 0.00 | 93 | 1006.4 |
| 20260901052403 | 16 | 226 | 0.0 | 3.2 | 0.00 | 0.00 | 0.00 | 93 | 1006.4 |
| 20260901051902 | 16 | 221 | 0.0 | 3.2 | 0.00 | 0.00 | 0.00 | 94 | 1006.4 |
| 20260901051624 | 16 | 245 | 1.6 | 1.6 | 0.00 | 0.00 | 0.00 | 94 | 1006.3 |
| 20260901050902 | 16 | 245 | 0.0 | 0.0 | 0.00 | 0.00 | 0.00 | 94 | 1006.2 |
| 20260901050402 | 15 | 245 | 0.0 | 0.0 | 0.00 | 0.00 | 0.00 | 94 | 1006.3 |
| 20260901045902 | 15 | 245 | 0.0 | 0.0 | 0.00 | 0.00 | 0.00 | 94 | 1006.3 |
| 20260901045402 | 15 | 245 | 0.0 | 0.0 | 0.00 | 0.00 | 0.00 | 94 | 1006.3 |
| 20260901045122 | 15 | 245 | 0.0 | 0.0 | 0.00 | 0.00 | 0.00 | 94 | 1006.3 |
| 20260901044401 | 15 | 245 | 0.0 | 0.0 | 0.00 | 0.00 | 0.00 | 95 | 1006.4 |
| 20260901043902 | 15 | 245 | 0.0 | 0.0 | 0.00 | 0.00 | 0.00 | 95 | 1006.4 |
| 20260901043622 | 15 | 245 | 0.0 | 0.0 | 0.00 | 0.00 | 0.00 | 94 | 1006.4 |
| 20260901042902 | 15 | 245 | 0.0 | 0.0 | 0.00 | 0.00 | 0.00 | 94 | 1006.2 |
| 20260901042402 | 15 | 245 | 0.0 | 0.0 | 0.00 | 0.00 | 0.00 | 94 | 1006.3 |
| 20260901041902 | 15 | 245 | 0.0 | 0.0 | 0.00 | 0.00 | 0.00 | 94 | 1006.4 |
| 20260901041621 | 15 | 245 | 0.0 | 0.0 | 0.00 | 0.00 | 0.00 | 94 | 1006.4 |
| 20260901040902 | 15 | 245 | 0.0 | 0.0 | 0.00 | 0.00 | 0.00 | 94 | 1006.4 |
| 20260901040404 | 15 | 245 | 0.0 | 0.0 | 0.00 | 0.00 | 0.00 | 94 | 1006.3 |
| 20260901035903 | 15 | 245 | 0.0 | 0.0 | 0.00 | 0.00 | 0.00 | 94 | 1006.4 |
| 20260901035401 | 14 | 245 | 0.0 | 0.0 | 0.00 | 0.00 | 0.00 | 94 | 1006.4 |
| 20260901034901 | 14 | 245 | 0.0 | 0.0 | 0.00 | 0.00 | 0.00 | 94 | 1006.4 |
| 20260901034402 | 14 | 245 | 0.0 | 0.0 | 0.00 | 0.00 | 0.00 | 93 | 1006.4 |
| 20260901033902 | 14 | 245 | 0.0 | 0.0 | 0.00 | 0.00 | 0.00 | 94 | 1006.4 |
| 20260901033402 | 14 | 245 | 0.0 | 0.0 | 0.00 | 0.00 | 0.00 | 93 | 1006.4 |
| 20260901032902 | 14 | 245 | 0.0 | 0.0 | 0.00 | 0.00 | 0.00 | 93 | 1006.4 |
| 20260901032402 | 15 | 245 | 0.0 | 0.0 | 0.00 | 0.00 | 0.00 | 93 | 1006.3 |
| 20260901031902 | 15 | 245 | 0.0 | 0.0 | 0.00 | 0.00 | 0.00 | 93 | 1006.4 |
| 20260901031402 | 15 | 245 | 0.0 | 0.0 | 0.00 | 0.00 | 0.00 | 93 | 1006.3 |
| 20260901030902 | 15 | 245 | 0.0 | 0.0 | 0.00 | 0.00 | 0.00 | 93 | 1006.4 |
| 20260901030402 | 15 | 245 | 0.0 | 0.0 | 0.00 | 0.00 | 0.00 | 93 | 1006.3 |
| 20260901025902 | 15 | 245 | 0.0 | 0.0 | 0.00 | 0.00 | 0.00 | 92 | 1006.4 |
| 20260901025401 | 15 | 245 | 0.0 | 0.0 | 0.00 | 0.00 | 0.00 | 93 | 1006.3 |
| 20260901024902 | 15 | 245 | 0.0 | 0.0 | 0.00 | 0.00 | 0.00 | 93 | 1006.3 |
| 20260901024402 | 15 | 245 | 0.0 | 0.0 | 0.00 | 0.00 | 0.00 | 93 | 1006.4 |
| 20260901023902 | 15 | 245 | 0.0 | 0.0 | 0.00 | 0.00 | 0.00 | 93 | 1006.3 |
| 20260901023402 | 15 | 245 | 0.0 | 0.0 | 0.00 | 0.00 | 0.00 | 93 | 1006.3 |
| 20260901022902 | 15 | 245 | 0.0 | 0.0 | 0.00 | 0.00 | 0.00 | 93 | 1006.3 |
| 20260901022402 | 15 | 245 | 0.0 | 0.0 | 0.00 | 0.00 | 0.00 | 93 | 1006.4 |
| 20260901021902 | 15 | 245 | 0.0 | 1.6 | 0.00 | 0.00 | 0.00 | 93 | 1006.4 |
| 20260901021402 | 15 | 245 | 0.0 | 1.6 | 0.00 | 0.00 | 0.00 | 93 | 1006.3 |
| 20260901020902 | 15 | 245 | 0.0 | 0.0 | 0.00 | 0.00 | 0.00 | 93 | 1006.3 |
| 20260901020403 | 15 | 245 | 0.0 | 0.0 | 0.00 | 0.00 | 0.00 | 93 | 1006.3 |
| 20260901015902 | 15 | 245 | 0.0 | 0.0 | 0.00 | 0.00 | 0.00 | 93 | 1006.2 |
| 20260901015403 | 15 | 245 | 0.0 | 0.0 | 0.00 | 0.00 | 0.00 | 93 | 1006.2 |
| 20260901014903 | 15 | 245 | 0.0 | 0.0 | 0.00 | 0.00 | 0.00 | 93 | 1006.3 |
| 20260901014403 | 15 | 245 | 0.0 | 0.0 | 0.00 | 0.00 | 0.00 | 93 | 1006.3 |
| 20260901013903 | 15 | 245 | 0.0 | 0.0 | 0.00 | 0.00 | 0.00 | 92 | 1006.3 |
| 20260901013403 | 15 | 245 | 0.0 | 0.0 | 0.00 | 0.00 | 0.00 | 92 | 1006.3 |
| 20260901012903 | 15 | 245 | 0.0 | 0.0 | 0.00 | 0.00 | 0.00 | 92 | 1006.2 |
| 20260901012403 | 15 | 245 | 0.0 | 0.0 | 0.00 | 0.00 | 0.00 | 92 | 1006.3 |
| 20260901011903 | 15 | 245 | 0.0 | 0.0 | 0.00 | 0.00 | 0.00 | 92 | 1006.3 |
| 20260901011403 | 15 | 245 | 0.0 | 0.0 | 0.00 | 0.00 | 0.00 | 92 | 1006.3 |
| 20260901010903 | 15 | 245 | 0.0 | 0.0 | 0.00 | 0.00 | 0.00 | 92 | 1006.3 |
| 20260901010404 | 15 | 245 | 0.0 | 0.0 | 0.00 | 0.00 | 0.00 | 92 | 1006.4 |
| 20260901005903 | 15 | 245 | 0.0 | 0.0 | 0.00 | 0.00 | 0.00 | 92 | 1006.4 |
| 20260901005403 | 15 | 245 | 0.0 | 0.0 | 0.00 | 0.00 | 0.00 | 92 | 1006.5 |
| 20260901005121 | 15 | 245 | 0.0 | 0.0 | 0.00 | 0.00 | 0.00 | 92 | 1006.5 |
| 20260901004404 | 15 | 245 | 0.0 | 0.0 | 0.00 | 0.00 | 0.00 | 92 | 1006.5 |
| 20260901003904 | 15 | 245 | 0.0 | 0.0 | 0.00 | 0.00 | 0.00 | 92 | 1006.5 |
| 20260901003358 | 15 | 245 | 0.0 | 0.0 | 0.00 | 0.00 | 0.00 | 92 | 1006.5 |
| 20260901002850 | 15 | 245 | 0.0 | 0.0 | 0.00 | 0.00 | 0.00 | 92 | 1006.5 |
| 20260901002350 | 15 | 245 | 0.0 | 0.0 | 0.00 | 0.00 | 0.00 | 92 | 1006.6 |
| 20260901001842 | 15 | 245 | 0.0 | 0.0 | 0.00 | 0.00 | 0.00 | 92 | 1006.5 |
| 20260901001340 | 15 | 245 | 0.0 | 0.0 | 0.00 | 0.00 | 0.00 | 92 | 1006.5 |
| 20260901000839 | 15 | 245 | 0.0 | 0.0 | 0.00 | 0.00 | 0.00 | 92 | 1006.4 |
| 20260901000340 | 15 | 245 | 0.0 | 0.0 | 0.00 | 0.00 | 0.00 | 92 | 1006.5 |
| 20260831235839 | 15 | 245 | 0.0 | 0.0 | 0.00 | 0.00 | 0.00 | 92 | 1006.5 |
| 20260831235340 | 15 | 245 | 0.0 | 0.0 | 0.00 | 0.00 | 0.00 | 92 | 1006.6 |
| 20260831234839 | 15 | 247 | 0.0 | 0.0 | 0.00 | 0.00 | 0.00 | 91 | 1006.6 |
| 20260831234340 | 15 | 247 | 0.0 | 0.0 | 0.00 | 0.00 | 0.00 | 91 | 1006.6 |
| 20260831233839 | 15 | 247 | 0.0 | 0.0 | 0.00 | 0.00 | 0.00 | 91 | 1006.5 |
| 20260831233339 | 15 | 247 | 0.0 | 0.0 | 0.00 | 0.00 | 0.00 | 90 | 1006.6 |
| 20260831232839 | 15 | 247 | 0.0 | 0.0 | 0.00 | 0.00 | 0.00 | 90 | 1006.5 |
| 20260831232338 | 15 | 247 | 0.0 | 0.0 | 0.00 | 0.00 | 0.00 | 90 | 1006.5 |
| 20260831231838 | 15 | 247 | 0.0 | 0.0 | 0.00 | 0.00 | 0.00 | 90 | 1006.5 |
| 20260831231338 | 15 | 247 | 0.0 | 0.0 | 0.00 | 0.00 | 0.00 | 90 | 1006.5 |
| 20260831230839 | 15 | 247 | 0.0 | 0.0 | 0.00 | 0.00 | 0.00 | 90 | 1006.5 |
| 20260831230600 | 16 | 247 | 0.0 | 0.0 | 0.00 | 0.00 | 0.00 | 89 | 1006.6 |
| 20260831230106 | 16 | 247 | 0.0 | 0.0 | 0.00 | 0.00 | 0.00 | 89 | 1006.7 |
| 20260831225338 | 16 | 247 | 0.0 | 1.6 | 0.00 | 0.00 | 0.00 | 89 | 1006.6 |
| 20260831224838 | 16 | 247 | 0.0 | 3.2 | 0.00 | 0.00 | 0.00 | 89 | 1006.6 |
| 20260831224338 | 16 | 247 | 0.0 | 4.8 | 0.00 | 0.00 | 0.00 | 89 | 1006.7 |
| 20260831223838 | 16 | 240 | 1.6 | 8.0 | 0.00 | 0.00 | 0.00 | 89 | 1006.6 |
| 20260831223338 | 16 | 290 | 3.2 | 8.0 | 0.00 | 0.00 | 0.00 | 89 | 1006.7 |
| 20260831222838 | 16 | 281 | 0.0 | 4.8 | 0.00 | 0.00 | 0.00 | 90 | 1006.6 |
| 20260831222337 | 16 | 255 | 0.0 | 4.8 | 0.00 | 0.00 | 0.00 | 90 | 1006.7 |
| 20260831221838 | 16 | 281 | 3.2 | 4.8 | 0.00 | 0.00 | 0.00 | 90 | 1006.7 |
| 20260831221604 | 16 | 243 | 1.6 | 4.8 | 0.00 | 0.00 | 0.00 | 90 | 1006.8 |
| 20260831220837 | 16 | 271 | 0.0 | 4.8 | 0.00 | 0.00 | 0.00 | 90 | 1006.8 |
| 20260831220337 | 16 | 300 | 1.6 | 4.8 | 0.00 | 0.00 | 0.00 | 90 | 1006.8 |
| 20260831215837 | 16 | 248 | 0.0 | 4.8 | 0.00 | 0.00 | 0.00 | 90 | 1006.8 |
| 20260831215337 | 16 | 212 | 1.6 | 4.8 | 0.00 | 0.00 | 0.00 | 90 | 1006.8 |
| 20260831214836 | 16 | 216 | 0.0 | 3.2 | 0.00 | 0.00 | 0.00 | 90 | 1006.9 |
| 20260831214556 | 16 | 233 | 0.0 | 4.8 | 0.00 | 0.00 | 0.00 | 90 | 1006.9 |
| 20260831213837 | 16 | 231 | 1.6 | 6.4 | 0.00 | 0.00 | 0.00 | 90 | 1006.9 |
| 20260831213337 | 16 | 233 | 1.6 | 6.4 | 0.00 | 0.00 | 0.00 | 90 | 1006.9 |
| 20260831212836 | 16 | 141 | 0.0 | 4.8 | 0.00 | 0.00 | 0.00 | 90 | 1006.9 |
| 20260831212336 | 16 | 206 | 1.6 | 4.8 | 0.00 | 0.00 | 0.00 | 89 | 1006.9 |
| 20260831211836 | 16 | 214 | 0.0 | 4.8 | 0.00 | 0.00 | 0.00 | 89 | 1006.9 |
| 20260831211336 | 16 | 254 | 1.6 | 4.8 | 0.00 | 0.00 | 0.00 | 89 | 1006.9 |
| 20260831210836 | 16 | 168 | 0.0 | 3.2 | 0.00 | 0.00 | 0.00 | 89 | 1006.8 |
| 20260831210335 | 16 | 243 | 0.0 | 4.8 | 0.00 | 0.00 | 0.00 | 89 | 1006.8 |
| 20260831205835 | 16 | 212 | 0.0 | 6.4 | 0.00 | 0.00 | 0.00 | 89 | 1006.7 |
| 20260831205825 | 16 | 216 | 0.0 | 6.4 | 0.00 | 0.00 | 0.00 | 89 | 1006.8 |
| 20260831204835 | 16 | 199 | 1.6 | 3.2 | 0.00 | 0.00 | 0.00 | 89 | 1006.8 |
| 20260831204335 | 16 | 209 | 0.0 | 3.2 | 0.00 | 0.00 | 0.00 | 89 | 1006.7 |
| 20260831203835 | 16 | 209 | 0.0 | 3.2 | 0.00 | 0.00 | 0.00 | 88 | 1006.6 |
| 20260831203335 | 16 | 210 | 0.0 | 1.6 | 0.00 | 0.00 | 0.00 | 88 | 1006.6 |
| 20260831202835 | 16 | 210 | 0.0 | 4.8 | 0.00 | 0.00 | 0.00 | 88 | 1006.6 |
| 20260831202335 | 16 | 210 | 0.0 | 4.8 | 0.00 | 0.00 | 0.00 | 88 | 1006.6 |
| 20260831201835 | 16 | 209 | 0.0 | 3.2 | 0.00 | 0.00 | 0.00 | 88 | 1006.6 |
| 20260831201335 | 15 | 196 | 0.0 | 3.2 | 0.00 | 0.00 | 0.00 | 88 | 1006.6 |
| 20260831200834 | 15 | 196 | 0.0 | 0.0 | 0.00 | 0.00 | 0.00 | 88 | 1006.6 |
| 20260831200334 | 15 | 196 | 0.0 | 1.6 | 0.00 | 0.00 | 0.00 | 88 | 1006.6 |
| 20260831195835 | 15 | 196 | 0.0 | 1.6 | 0.00 | 0.00 | 0.00 | 88 | 1006.6 |
| 20260831195334 | 15 | 196 | 0.0 | 1.6 | 0.00 | 0.00 | 0.00 | 88 | 1006.6 |
| 20260831195056 | 15 | 196 | 0.0 | 1.6 | 0.00 | 0.00 | 0.00 | 88 | 1006.6 |
| 20260831194334 | 15 | 197 | 0.0 | 1.6 | 0.00 | 0.00 | 0.00 | 88 | 1006.6 |
| 20260831193834 | 15 | 197 | 0.0 | 1.6 | 0.00 | 0.00 | 0.00 | 88 | 1006.7 |
| 20260831193334 | 15 | 197 | 0.0 | 3.2 | 0.00 | 0.00 | 0.00 | 88 | 1006.6 |
| 20260831192834 | 15 | 197 | 0.0 | 3.2 | 0.00 | 0.00 | 0.00 | 88 | 1006.6 |
| 20260831192525 | 15 | 196 | 0.0 | 3.2 | 0.00 | 0.00 | 0.00 | 88 | 1006.7 |
| 20260831191333 | 15 | 200 | 0.0 | 0.0 | 0.00 | 0.00 | 0.00 | 87 | 1006.6 |
| 20260831190834 | 15 | 200 | 0.0 | 0.0 | 0.00 | 0.00 | 0.00 | 87 | 1006.5 |
| 20260831190334 | 15 | 200 | 0.0 | 0.0 | 0.00 | 0.00 | 0.00 | 87 | 1006.5 |
| 20260831185833 | 15 | 200 | 0.0 | 0.0 | 0.00 | 0.00 | 0.00 | 86 | 1006.6 |
| 20260831185334 | 15 | 200 | 0.0 | 0.0 | 0.00 | 0.00 | 0.00 | 86 | 1006.5 |
| 20260831184833 | 16 | 200 | 0.0 | 0.0 | 0.00 | 0.00 | 0.00 | 86 | 1006.5 |